Погода в Михалкове

Россия / Ивановская область     56°53′35″N   41°32′07″E
темп.,
°C
ветер,
м/с
пор.,
м/с
влажн.,
%
обл.,
%
осадки,
мм/ч
давл.,
гПа
погр.,
м
17 мая, вт
вт1700:00+6з4898100 2.3 1000438
03:00+6юз2499100 4.4 999236
06:00+7с2398100 0.0 999205
09:00+9ссв3591100 0.1 1000647
12:00+11ссв4683100 1.3 10001050
15:00+11ссв788799 3.5 1001828
18:00+8с61097100 4.8 1003510
21:00+7ссв61294100 7.1 1004762
18 мая, ср
ср1800:00+7ссв5119195 0.8 1005634
03:00+4с4109659 0.8 1007333
06:00+4с4119199 0.0 1008425
09:00+9с575859 0.0 10091421
12:00+11ссз6753100 0.0 10091890
15:00+10ссз5758100 0.1 10101586
18:00+6сз6991100 0.6 1011909
21:00+4сз410915 0.8 1012581
19 мая, чт
чт1900:00+2з389784 0.0 1012186
03:00+3з3995100 0.0 1011308
06:00+3зсз3598100 3.1 1010461
09:00+2с4798100 5.5 1011368
12:00+7ссз5772100 0.1 10121443
15:00+10сз585148 0.1 10121921
18:00+8ссз59688 0.3 10131279
21:00+3сз388398 0.4 1014166
20 мая, пт
пт2000:00+2зсз389094 0.0 1014198
03:00+1сз4119630 0.0 1015440
06:00+2с588395 0.0 1017602
09:00+6с56657 0.0 1018944
12:00+9ссз5651100 0.1 10181930
15:00+11ссз464198 0.1 10172399
18:00+11сз35526 0.0 10171363
21:00+5сз377466 0.1 1017100
21 мая, сб
сб2100:00+3с377766 0.0 1017121
03:00+1с35835 0.0 101776
06:00+3св36755 0.0 1017236
09:00+7ссв45515 0.0 1016999
12:00+10ссв454156 0.0 10151996
15:00+11с4640100 0.0 10142278
18:00+10с465178 0.0 10141562
21:00+5ссв3666100 0.0 1015111